Weather History for Unalakleet, AK

Change the Weather History Date:

Sunday, March 24, 2013

  Actual Average Record
Temperature  
Mean Temperature -4 °F -  
Max Temperature 1 °F 21 °F 42 °F (1965)
Min Temperature -9 °F 1 °F -24 °F (1982)
Degree Days  
Heating Degree Days 69    
Moisture  
Dew Point -10 °F    
Average Humidity 73    
Maximum Humidity 100    
Minimum Humidity 55    
Precipitation  
Precipitation 0.00 in - - ()
Sea Level Pressure  
Sea Level Pressure 30.05 in    
Wind  
Wind Speed 12 mph (NW)    
Max Wind Speed 20 mph    
Max Gust Speed -    
Visibility 10 miles    
Events      
Averages and records for this station are not official NWS values.
T = Trace of Precipitation, MM = Missing Value Source: NWS Daily Summary

Daily Weather History Graph

Daily Weather History Graph

Search for Another Location

Airport:

Trip Planner

Search our weather history database for the weather conditions in past years. The results will help you decide how hot, cold, wet, or windy it might be!

Date:

Astronomy

Mar. 24, 2013 Rise Set
Actual Time 8:28 AM AKDT 9:12 PM AKDT
Civil Twilight 7:40 AM AKDT 10:00 PM AKDT
Nautical Twilight 6:41 AM AKDT 11:00 PM AKDT
Astronomical Twilight 5:31 AM AKDT 12:10 AM AKDT
Moon 6:16 PM AKDT (3/24) 7:29 AM AKDT (3/24)
Length of Visible Light 14h 19m
Length of Day
12h 44m
Waxing Gibbous, 92% of the Moon is Illuminated
Mar 24
Waxing Gibbous
Mar 27
Full
Apr 2
Last Quarter
Apr 10
New
Apr 18
First Quarter

Hourly Weather History & Observations

Time (AKDT) Temp. Windchill Dew Point Humidity Pressure Visibility Wind Dir Wind Speed Gust Speed Precip Events Conditions
12:16 AM 1.4 °F -16.1 °F -4.0 °F 78% 30.08 in 10.0 mi SSW 12.7 mph - N/A   Overcast
12:36 AM 1.4 °F -15.3 °F -0.4 °F 92% 30.07 in 10.0 mi SW 11.5 mph - N/A   Overcast
12:56 AM 1.4 °F -15.3 °F -7.6 °F 66% 30.07 in 7.0 mi SW 11.5 mph - N/A   Overcast
1:16 AM 1.4 °F -17.6 °F -2.2 °F 85% 30.07 in 3.0 mi SW 15.0 mph - N/A   Overcast
1:36 AM 1.4 °F -16.9 °F -2.2 °F 85% 30.06 in 9.0 mi West 13.8 mph - N/A   Overcast
1:56 AM 1.4 °F -16.9 °F -7.6 °F 66% 30.06 in 10.0 mi West 13.8 mph - N/A   Overcast
2:16 AM 1.4 °F -15.3 °F -5.8 °F 72% 30.06 in 10.0 mi West 11.5 mph - N/A   Overcast
2:36 AM 1.4 °F -13.5 °F -5.8 °F 72% 30.06 in 10.0 mi West 9.2 mph - N/A   Overcast
2:56 AM 1.4 °F -14.5 °F -5.8 °F 72% 30.06 in 10.0 mi WNW 10.4 mph - N/A   Overcast
3:16 AM 1.4 °F -14.5 °F -7.6 °F 66% 30.06 in 10.0 mi West 10.4 mph - N/A   Scattered Clouds
3:36 AM 1.4 °F -15.3 °F -4.0 °F 78% 30.06 in 10.0 mi West 11.5 mph - N/A   Partly Cloudy
3:56 AM 1.4 °F -14.5 °F -7.6 °F 66% 30.06 in 10.0 mi West 10.4 mph - N/A   Mostly Cloudy
4:16 AM 1.4 °F -14.5 °F -5.8 °F 72% 30.06 in 10.0 mi West 10.4 mph - N/A   Overcast
4:36 AM 1.4 °F -15.3 °F -5.8 °F 72% 30.06 in 10.0 mi West 11.5 mph - N/A   Mostly Cloudy
4:56 AM -0.4 °F -16.7 °F -7.6 °F 72% 30.06 in 10.0 mi West 10.4 mph - N/A   Mostly Cloudy
5:16 AM 1.4 °F -13.5 °F -4.0 °F 78% 30.06 in 9.0 mi WNW 9.2 mph - N/A   Mostly Cloudy
5:36 AM -0.4 °F -17.6 °F -7.6 °F 72% 30.06 in 10.0 mi WNW 11.5 mph - N/A   Mostly Cloudy
5:56 AM -0.4 °F -17.6 °F -5.8 °F 78% 30.06 in 10.0 mi NW 11.5 mph - N/A   Overcast
6:16 AM -2.2 °F -18.9 °F -7.6 °F 78% 30.06 in 10.0 mi NW 10.4 mph - N/A   Mostly Cloudy
6:36 AM -2.2 °F -16.8 °F -7.6 °F 78% 30.06 in 10.0 mi North 8.1 mph - N/A   Partly Cloudy
6:56 AM -5.8 °F -19.9 °F -9.4 °F 84% 30.06 in 10.0 mi NNW 6.9 mph - N/A   Clear
7:16 AM -4.0 °F -19.0 °F -7.6 °F 85% 30.06 in 10.0 mi NW 8.1 mph - N/A   Clear
7:36 AM -4.0 °F -14.6 °F -7.6 °F 85% 30.07 in 10.0 mi NNW 4.6 mph - N/A   Mostly Cloudy
7:56 AM -5.8 °F -23.4 °F -11.2 °F 77% 30.07 in 10.0 mi NW 10.4 mph - N/A   Overcast
8:16 AM -5.8 °F -23.4 °F -5.8 °F 100% 30.07 in 10.0 mi NW 10.4 mph - N/A   Overcast
8:36 AM -5.8 °F -21.2 °F -16.6 °F 60% 30.07 in 10.0 mi NNW 8.1 mph - N/A   Scattered Clouds
8:56 AM -5.8 °F -22.4 °F -7.6 °F 92% 30.06 in 10.0 mi NW 9.2 mph - N/A   Scattered Clouds
9:16 AM -5.8 °F -22.4 °F -14.8 °F 65% 30.06 in 10.0 mi NNW 9.2 mph - N/A   Mostly Cloudy
9:36 AM -5.8 °F -22.4 °F -11.2 °F 77% 30.07 in 10.0 mi NNW 9.2 mph - N/A   Mostly Cloudy
9:56 AM -7.6 °F -24.6 °F -7.6 °F 100% 30.06 in 10.0 mi NNW 9.2 mph - N/A   Overcast
10:16 AM -7.6 °F -23.4 °F -16.6 °F 65% 30.07 in 10.0 mi NNW 8.1 mph - N/A   Overcast
10:36 AM -5.8 °F -23.4 °F -5.8 °F 100% 30.07 in 10.0 mi NNW 10.4 mph - N/A   Overcast
10:56 AM -5.8 °F -23.4 °F -14.8 °F 65% 30.07 in 10.0 mi NNW 10.4 mph - N/A   Mostly Cloudy
11:16 AM -5.8 °F -23.4 °F -9.4 °F 84% 30.07 in 10.0 mi NNW 10.4 mph - N/A   Partly Cloudy
11:36 AM -5.8 °F -21.2 °F -13.0 °F 71% 30.08 in 10.0 mi North 8.1 mph - N/A   Mostly Cloudy
11:56 AM -5.8 °F -22.4 °F -7.6 °F 92% 30.07 in 10.0 mi NNW 9.2 mph - N/A   Scattered Clouds
12:16 PM -5.8 °F -23.4 °F -11.2 °F 77% 30.07 in 10.0 mi NNW 10.4 mph - N/A   Clear
12:36 PM -4.0 °F -22.1 °F -11.2 °F 71% 30.07 in 10.0 mi NNW 11.5 mph - N/A   Clear
12:56 PM -4.0 °F -21.2 °F -7.6 °F 85% 30.07 in 10.0 mi NW 10.4 mph - N/A   Clear
1:16 PM -4.0 °F -22.1 °F -9.4 °F 78% 30.07 in 10.0 mi NW 11.5 mph - N/A   Clear
1:36 PM -2.2 °F -19.9 °F -9.4 °F 71% 30.07 in 10.0 mi NNW 11.5 mph - N/A   Clear
1:56 PM -2.2 °F -20.7 °F -11.2 °F 66% 30.07 in 10.0 mi NNW 12.7 mph - N/A   Clear
2:16 PM -4.0 °F -23.0 °F -11.2 °F 71% 30.07 in 10.0 mi NNW 12.7 mph - N/A   Clear
2:36 PM -2.2 °F -21.5 °F -9.4 °F 71% 30.06 in 10.0 mi NNW 13.8 mph - N/A   Clear
2:56 PM -2.2 °F -21.5 °F -11.2 °F 66% 30.06 in 10.0 mi NNW 13.8 mph - N/A   Clear
3:16 PM -2.2 °F -21.5 °F -11.2 °F 66% 30.06 in 10.0 mi NNW 13.8 mph - N/A   Clear
3:36 PM -2.2 °F -21.5 °F -11.2 °F 66% 30.06 in 10.0 mi NW 13.8 mph - N/A   Clear
3:56 PM -4.0 °F -24.5 °F -11.2 °F 71% 30.06 in 10.0 mi NNW 15.0 mph - N/A   Clear
4:16 PM -4.0 °F -23.7 °F -11.2 °F 71% 30.06 in 10.0 mi NW 13.8 mph - N/A   Clear
4:36 PM -4.0 °F -23.0 °F -11.2 °F 71% 30.05 in 10.0 mi NNW 12.7 mph - N/A   Clear
4:56 PM -4.0 °F -25.2 °F -13.0 °F 65% 30.05 in 10.0 mi NNW 16.1 mph - N/A   Clear
5:16 PM -4.0 °F -25.8 °F -11.2 °F 71% 30.05 in 10.0 mi NNW 17.3 mph - N/A   Clear
5:36 PM -4.0 °F -25.2 °F -11.2 °F 71% 30.04 in 10.0 mi NNW 16.1 mph - N/A   Clear
5:56 PM -4.0 °F -25.2 °F -14.8 °F 60% 30.04 in 10.0 mi NW 16.1 mph - N/A   Clear
6:16 PM -4.0 °F -25.2 °F -11.2 °F 71% 30.04 in 10.0 mi NNW 16.1 mph - N/A   Clear
6:36 PM -2.2 °F -24.7 °F -14.8 °F 55% 30.03 in 10.0 mi NW 19.6 mph - N/A   Clear
6:56 PM -2.2 °F -24.1 °F -11.2 °F 66% 30.03 in 10.0 mi NW 18.4 mph - N/A   Clear
7:16 PM -4.0 °F -25.2 °F -14.8 °F 60% 30.03 in 10.0 mi NW 16.1 mph - N/A   Clear
7:36 PM -4.0 °F -25.2 °F -13.0 °F 65% 30.03 in 10.0 mi NNW 16.1 mph - N/A   Clear
7:56 PM -5.8 °F -27.5 °F -14.8 °F 65% 30.03 in 10.0 mi NNW 16.1 mph - N/A   Clear
8:16 PM -5.8 °F -26.8 °F -14.8 °F 65% 30.03 in 10.0 mi NNW 15.0 mph - N/A   Clear
8:36 PM -5.8 °F -25.2 °F -14.8 °F 65% 30.03 in 10.0 mi North 12.7 mph - N/A   Clear
8:56 PM -7.6 °F -26.6 °F -16.6 °F 65% 30.03 in 10.0 mi North 11.5 mph - N/A   Clear
9:16 PM -7.6 °F -27.5 °F -16.6 °F 65% 30.03 in 10.0 mi NNW 12.7 mph - N/A   Clear
9:36 PM -7.6 °F -27.5 °F -16.6 °F 65% 30.02 in 10.0 mi NNW 12.7 mph - N/A   Clear
9:56 PM -7.6 °F -28.3 °F -16.6 °F 65% 30.02 in 10.0 mi NNW 13.8 mph - N/A   Scattered Clouds
10:16 PM -7.6 °F -27.5 °F -14.8 °F 71% 30.02 in 10.0 mi NNW 12.7 mph - N/A   Scattered Clouds
10:36 PM -9.4 °F -29.8 °F -18.4 °F 65% 30.02 in 10.0 mi North 12.7 mph - N/A   Mostly Cloudy
10:56 PM -9.4 °F -28.9 °F -14.8 °F 77% 30.02 in 10.0 mi NNW 11.5 mph - N/A   Mostly Cloudy
11:16 PM -9.4 °F -29.8 °F -16.6 °F 71% 30.02 in 10.0 mi NNW 12.7 mph - N/A   Scattered Clouds
11:36 PM -9.4 °F -28.9 °F -18.4 °F 65% 30.01 in 10.0 mi NNW 11.5 mph - N/A   Scattered Clouds
11:56 PM -9.4 °F -25.6 °F -16.6 °F 71% 30.01 in 10.0 mi North 8.1 mph - N/A   Partly Cloudy